Weather in Shtanashi

Russia / Chuvash Republic     55°41′41″N   46°26′43″E
temp.,
°C
wind,
m/s
gust,
m/s
humid.,
%
clouds,
%
prec.,
mm/h
press.,
hPa
HPBL,
m
21 june, mon
mon2100:00+19wsw22890 0.0 102121
03:00+17sw22900 0.0 102221
06:00+20wsw23830 0.0 1022113
09:00+24wsw33715 0.0 1021409
12:00+27w34625 0.0 10221042
15:00+28w44615 0.0 10211259
18:00+27w357495 0.0 1020242
21:00+22w238669 0.0 102121
22 june, tue
tue2200:00+20w228815 0.0 102115
03:00+19w228639 0.0 102214
06:00+22w23816 0.0 1022113
09:00+26w236871 0.0 1022475
12:00+28wnw335881 0.0 1022956
15:00+29wnw335698 0.0 10221217
18:00+27wnw2474100 0.0 1021158
21:00+22wnw228683 0.0 102117
23 june, wed
wed2300:00+20wsw22878 0.0 102111
03:00+19w22880 0.0 102113
06:00+22wsw23820 0.0 1021121
09:00+26w34700 0.0 1021484
12:00+29wnw33572 0.8 10211069
15:00+29w33550 0.8 10201286
18:00+27wnw367637 0.4 1018158
21:00+22s228386 0.9 101926
24 june, thu
thu2400:00+21ssw2287100 0.4 101925
03:00+20nne1189100 0.4 101911
06:00+22wnw128096 0.0 101985
09:00+26wnw226794 0.0 1019357
12:00+29nnw2258100 0.0 1018812
15:00+30w0154100 0.1 10171049
18:00+29wsw226996 0.0 101663
21:00+23s228141 1.1 101621
25 june, fri
fri2500:00+21sw338487 0.4 101632
03:00+20wsw229478 0.4 101627
06:00+23sw118455 0.0 101573
09:00+27wnw22695 0.0 1015412
12:00+30nw33580 0.0 1015949
15:00+30w33570 0.0 1014939
18:00+29sw23720 0.1 101392
21:00+22nne249089 1.4 1014100